KT2UU-13 Weather Reports


time (UTC)temp
C
wind
direction
speed
KPH
gust
KPH
rain 1hr
cm
rain 24hr
cm
rain mn
cm
humidity
%
barometer
mb
20260508211555 21 9 1.6 1.6 0.00 0.00 0.00 59 1014.7
20260508211052 21 6 0.0 0.0 0.00 0.00 0.00 56 1014.6
20260508210548 21 1 0.0 0.0 0.00 0.00 0.00 54 1015.0
20260508210046 21 349 0.0 0.0 0.00 0.00 0.00 53 1014.8
20260508205543 21 8 0.0 0.0 0.00 0.00 0.00 55 1014.9
20260508205039 21 11 1.6 3.2 0.00 0.00 0.00 50 1015.0
20260508204536 21 10 0.0 0.0 0.00 0.00 0.00 53 1014.8
20260508204031 21 8 0.0 0.0 0.00 0.00 0.00 51 1015.2
20260508203528 21 5 0.0 1.6 0.00 0.00 0.00 49 1014.9
20260508203024 22 1 0.0 1.6 0.00 0.00 0.00 48 1015.3
20260508202521 22 301 0.0 1.6 0.00 0.00 0.00 45 1015.3
20260508202018 21 15 0.0 3.2 0.00 0.00 0.00 49 1015.1
20260508201514 22 78 0.0 0.0 0.00 0.00 0.00 49 1015.3
20260508201011 21 112 0.0 0.0 0.00 0.00 0.00 52 1015.3
20260508200508 21 4 0.0 1.6 0.00 0.00 0.00 51 1015.0
20260508200004 21 14 0.0 0.0 0.00 0.00 0.00 52 1015.1
20260508195501 21 1 3.2 4.8 0.00 0.00 0.00 48 1015.2
20260508194956 22 150 0.0 0.0 0.00 0.00 0.00 51 1015.1
20260508194454 22 139 0.0 0.0 0.00 0.00 0.00 51 1015.2
20260508193951 22 176 0.0 0.0 0.00 0.00 0.00 45 1015.4
20260508193447 22 213 0.0 1.6 0.00 0.00 0.00 43 1015.5
20260508192944 21 193 0.0 0.0 0.00 0.00 0.00 45 1015.5
20260508192441 21 135 1.6 3.2 0.00 0.00 0.00 49 1015.8
20260508191938 21 149 0.0 1.6 0.00 0.00 0.00 49 1016.1
20260508191435 21 92 0.0 3.2 0.00 0.00 0.00 48 1016.1
20260508190931 21 136 1.6 3.2 0.00 0.00 0.00 46 1016.1
20260508190429 21 0 0.0 1.6 0.00 0.00 0.00 48 1016.1
20260508185925 21 226 0.0 3.2 0.00 0.00 0.00 50 1016.3
20260508185423 22 270 0.0 3.2 0.00 0.00 0.00 46 1016.2
20260508184920 22 184 1.6 1.6 0.00 0.00 0.00 48 1016.3
20260508184417 21 254 0.0 3.2 0.00 0.00 0.00 48 1016.4
20260508183914 21 113 0.0 1.6 0.00 0.00 0.00 50 1016.3
20260508183410 22 90 0.0 3.2 0.00 0.00 0.00 47 1016.4
20260508182905 22 58 0.0 3.2 0.00 0.00 0.00 45 1016.3
20260508182403 21 332 0.0 3.2 0.00 0.00 0.00 43 1016.5
20260508181858 21 350 0.0 0.0 0.00 0.00 0.00 46 1016.7
20260508181355 21 15 0.0 4.8 0.00 0.00 0.00 46 1016.7
20260508180852 21 341 3.2 4.8 0.00 0.00 0.00 44 1016.6
20260508180349 21 5 0.0 4.8 0.00 0.00 0.00 43 1016.8
20260508175845 21 237 1.6 4.8 0.00 0.00 0.00 48 1016.8
20260508175342 21 101 0.0 3.2 0.00 0.00 0.00 49 1016.9
20260508174840 21 43 1.6 1.6 0.00 0.00 0.00 45 1017.0
20260508174337 21 191 0.0 0.0 0.00 0.00 0.00 47 1016.9
20260508173834 20 209 0.0 1.6 0.00 0.00 0.00 45 1017.0
20260508173331 20 357 0.0 4.8 0.00 0.00 0.00 43 1016.9
20260508172826 20 137 0.0 1.6 0.00 0.00 0.00 45 1017.1
20260508172324 20 127 0.0 3.2 0.00 0.00 0.00 43 1017.4
20260508171820 21 129 3.2 4.8 0.00 0.00 0.00 46 1017.3
20260508171316 20 213 1.6 3.2 0.00 0.00 0.00 40 1017.5
20260508170813 20 4 0.0 1.6 0.00 0.00 0.00 45 1017.4
20260508170312 20 16 0.0 1.6 0.00 0.00 0.00 49 1017.5
20260508165808 20 165 3.2 4.8 0.00 0.00 0.00 47 1017.5
20260508165307 19 343 0.0 3.2 0.00 0.00 0.00 48 1017.6
20260508164801 20 265 0.0 3.2 0.00 0.00 0.00 45 1017.7
20260508164258 20 331 0.0 3.2 0.00 0.00 0.00 47 1017.7
20260508163756 20 92 0.0 3.2 0.00 0.00 0.00 48 1018.0
20260508163254 20 172 1.6 3.2 0.00 0.00 0.00 46 1018.1
20260508162749 19 5 0.0 0.0 0.00 0.00 0.00 47 1018.0
20260508162246 19 26 0.0 1.6 0.00 0.00 0.00 58 1018.1
20260508161743 19 356 0.0 3.2 0.00 0.00 0.00 49 1018.3
20260508161240 19 125 1.6 3.2 0.00 0.00 0.00 52 1018.4
20260508160738 18 36 0.0 3.2 0.00 0.00 0.00 50 1018.4
20260508160237 18 142 0.0 1.6 0.00 0.00 0.00 53 1018.5
20260508155732 19 353 1.6 3.2 0.00 0.00 0.00 49 1018.6
20260508155230 18 123 0.0 1.6 0.00 0.00 0.00 56 1018.5
20260508154726 18 359 3.2 4.8 0.00 0.00 0.00 52 1018.7
20260508154224 18 14 0.0 1.6 0.00 0.00 0.00 52 1018.6
20260508153720 18 320 1.6 6.4 0.00 0.00 0.00 49 1018.7
20260508153217 18 20 1.6 3.2 0.00 0.00 0.00 52 1018.8
20260508152714 17 223 0.0 1.6 0.00 0.00 0.00 60 1018.8
20260508152210 18 8 0.0 1.6 0.00 0.00 0.00 59 1018.8
20260508151707 17 9 0.0 4.8 0.00 0.00 0.00 57 1018.7
20260508151203 18 348 1.6 3.2 0.00 0.00 0.00 57 1018.7
20260508150700 17 286 0.0 1.6 0.00 0.00 0.00 60 1019.1
20260508150157 17 201 1.6 3.2 0.00 0.00 0.00 61 1018.9
20260508145652 17 19 3.2 11.3 0.00 0.00 0.00 59 1018.9
20260508145149 17 222 0.0 0.0 0.00 0.00 0.00 66 1019.0
20260508144646 16 222 0.0 3.2 0.00 0.00 0.00 65 1019.1
20260508144144 17 222 0.0 0.0 0.00 0.00 0.00 67 1019.2
20260508143641 16 222 0.0 0.0 0.00 0.00 0.00 68 1019.1
20260508143138 17 222 0.0 0.0 0.00 0.00 0.00 65 1019.0
20260508142634 16 223 1.6 1.6 0.00 0.00 0.00 71 1019.1
20260508142131 15 222 1.6 3.2 0.00 0.00 0.00 71 1019.0
20260508141628 16 222 1.6 3.2 0.00 0.00 0.00 69 1019.0
20260508141126 15 222 1.6 1.6 0.00 0.00 0.00 72 1019.2
20260508140623 15 217 1.6 1.6 0.00 0.00 0.00 76 1019.1
20260508140120 15 217 0.0 3.2 0.00 0.00 0.00 78 1018.9
20260508135614 15 219 0.0 0.0 0.00 0.00 0.00 80 1018.8
20260508135110 14 217 1.6 3.2 0.00 0.00 0.00 79 1018.9
20260508134608 15 219 0.0 0.0 0.00 0.00 0.00 79 1019.0
20260508134104 15 198 0.0 1.6 0.00 0.00 0.00 75 1019.2
20260508133601 15 219 0.0 0.0 0.00 0.00 0.00 76 1019.2
20260508133059 15 220 0.0 0.0 0.00 0.00 0.00 78 1019.0
20260508132551 14 217 1.6 1.6 0.00 0.00 0.00 82 1019.1
20260508132047 15 219 0.0 1.6 0.00 0.00 0.00 79 1018.9
20260508131542 14 197 0.0 1.6 0.00 0.00 0.00 81 1019.0
20260508131034 14 218 0.0 0.0 0.00 0.00 0.00 79 1019.0
20260508130531 14 219 1.6 1.6 0.00 0.00 0.00 79 1019.2
20260508130027 14 218 0.0 0.0 0.00 0.00 0.00 79 1019.3
20260508125523 14 218 0.0 0.0 0.00 0.00 0.00 80 1019.4
20260508125021 12 217 0.0 1.6 0.00 0.00 0.00 84 1019.3
20260508124519 13 335 0.0 0.0 0.00 0.00 0.00 82 1019.3
20260508124016 12 335 0.0 3.2 0.00 0.00 0.00 84 1019.4
20260508123514 12 326 0.0 3.2 0.00 0.00 0.00 85 1019.1
20260508123010 12 237 0.0 1.6 0.00 0.00 0.00 86 1019.0
20260508122508 12 236 0.0 0.0 0.00 0.00 0.00 89 1019.1
20260508122004 12 253 0.0 0.0 0.00 0.00 0.00 89 1019.1
20260508121502 11 248 0.0 0.0 0.00 0.00 0.00 91 1019.1
20260508121000 11 276 0.0 0.0 0.00 0.00 0.00 94 1019.0
20260508120457 10 277 0.0 0.0 0.00 0.00 0.00 96 1018.8
20260508115955 10 279 0.0 0.0 0.00 0.00 0.00 97 1018.7
20260508115453 10 279 0.0 0.0 0.00 0.00 0.00 98 1018.8
20260508114949 10 279 0.0 0.0 0.00 0.00 0.00 98 1018.5
20260508114446 9 279 0.0 0.0 0.00 0.00 0.00 99 1018.5
20260508113942 9 279 0.0 0.0 0.00 0.00 0.00 99 1018.3
20260508113440 8 279 0.0 0.0 0.00 0.00 0.00 99 1018.2
20260508112937 8 279 0.0 0.0 0.00 0.00 0.00 99 1017.9
20260508112434 8 279 0.0 0.0 0.00 0.00 0.00 99 1017.9
20260508111930 8 279 0.0 0.0 0.00 0.00 0.00 99 1017.8
20260508111428 8 279 0.0 0.0 0.00 0.00 0.00 99 1017.6
20260508110925 8 279 0.0 0.0 0.00 0.00 0.00 99 1017.6
20260508110423 8 279 0.0 0.0 0.00 0.00 0.00 99 1017.8
20260508105922 8 279 0.0 0.0 0.00 0.00 0.00 99 1017.6
20260508105418 8 279 0.0 0.0 0.00 0.00 0.00 99 1017.5
20260508104916 8 279 0.0 0.0 0.00 0.00 0.00 99 1017.3
20260508104413 8 279 0.0 0.0 0.00 0.00 0.00 99 1017.2
20260508103910 8 279 0.0 0.0 0.00 0.00 0.00 99 1017.2
20260508103407 8 279 0.0 0.0 0.00 0.00 0.00 99 1017.1
20260508102904 8 279 0.0 0.0 0.00 0.00 0.00 99 1017.1
20260508102403 8 279 0.0 0.0 0.00 0.00 0.00 98 1016.9
20260508101859 8 279 0.0 0.0 0.00 0.00 0.00 98 1016.9
20260508101356 8 279 0.0 0.0 0.00 0.00 0.00 98 1016.8
20260508100854 8 279 0.0 0.0 0.00 0.00 0.00 98 1016.6
20260508100353 8 279 0.0 0.0 0.00 0.00 0.00 98 1016.5
20260508095848 8 279 0.0 0.0 0.00 0.00 0.00 98 1016.5
20260508095346 8 279 0.0 0.0 0.00 0.00 0.00 98 1016.5
20260508094842 9 279 0.0 0.0 0.00 0.00 0.00 98 1016.6
20260508094339 9 279 0.0 0.0 0.00 0.00 0.00 98 1016.6
20260508093836 9 279 0.0 0.0 0.00 0.00 0.00 97 1016.5
20260508093334 9 279 0.0 0.0 0.00 0.00 0.00 97 1016.5
20260508092831 9 279 0.0 0.0 0.00 0.00 0.00 97 1016.5
20260508092329 9 279 0.0 0.0 0.00 0.00 0.00 96 1016.3
20260508091827 9 279 0.0 0.0 0.00 0.00 0.00 96 1016.3
20260508091323 9 279 0.0 0.0 0.00 0.00 0.00 95 1016.5
20260508090821 9 279 0.0 0.0 0.00 0.00 0.00 95 1016.6
20260508090320 9 279 0.0 0.0 0.00 0.00 0.00 95 1016.5
20260508085814 9 279 0.0 0.0 0.00 0.00 0.00 95 1016.4
20260508085312 9 257 0.0 0.0 0.00 0.00 0.00 95 1016.4
20260508084808 9 281 0.0 0.0 0.00 0.00 0.00 95 1016.3
20260508084305 10 281 0.0 0.0 0.00 0.00 0.00 96 1016.4
20260508083803 10 281 0.0 0.0 0.00 0.00 0.00 96 1016.5
20260508083300 10 281 0.0 0.0 0.00 0.00 0.00 96 1016.1
20260508082800 10 281 0.0 0.0 0.00 0.00 0.00 96 1016.2
20260508082258 10 282 0.0 0.0 0.00 0.00 0.00 96 1016.3
20260508081755 10 281 0.0 0.0 0.00 0.00 0.00 96 1016.2
20260508081252 10 282 0.0 0.0 0.00 0.00 0.00 96 1016.2
20260508080748 10 287 0.0 0.0 0.00 0.00 0.00 96 1016.4
20260508080247 10 287 0.0 0.0 0.00 0.00 0.00 96 1016.1
20260508075743 10 287 0.0 0.0 0.00 0.00 0.00 96 1016.3
20260508075240 10 255 0.0 0.0 0.00 0.00 0.00 97 1016.1
20260508074738 10 252 0.0 0.0 0.00 0.00 0.00 97 1016.3
20260508074235 10 255 0.0 0.0 0.00 0.00 0.00 97 1016.3
20260508073732 10 266 0.0 0.0 0.00 0.00 0.00 97 1016.3
20260508073230 10 245 0.0 0.0 0.00 0.00 0.00 97 1016.5
20260508072725 10 255 3.2 3.2 0.00 0.00 0.00 97 1016.5
20260508072223 10 0 0.0 0.0 0.00 0.00 0.00 97 1016.4
20260508071720 10 10 0.0 0.0 0.00 0.00 0.00 97 1016.7
20260508071218 10 0 0.0 0.0 0.00 0.00 0.00 97 1016.3
20260508070715 10 0 0.0 0.0 0.00 0.00 0.00 97 1016.5
20260508070214 10 0 0.0 0.0 0.00 0.00 0.00 97 1016.6
20260508065710 10 0 0.0 0.0 0.00 0.00 0.00 97 1016.7
20260508065209 10 0 0.0 0.0 0.00 0.00 0.00 97 1016.7
20260508064706 10 0 0.0 0.0 0.00 0.00 0.00 97 1016.6
20260508064204 10 0 0.0 0.0 0.00 0.00 0.00 97 1016.5
20260508063701 11 0 0.0 0.0 0.00 0.00 0.00 97 1016.7
20260508063159 11 0 0.0 0.0 0.00 0.00 0.00 97 1016.7
20260508062656 11 0 0.0 0.0 0.00 0.00 0.00 97 1016.6
20260508062153 11 0 0.0 0.0 0.00 0.00 0.00 97 1016.8
20260508061650 11 0 0.0 1.6 0.00 0.00 0.00 98 1016.8
20260508061148 11 0 1.6 1.6 0.00 0.00 0.00 98 1016.6
20260508060644 11 0 0.0 0.0 0.00 0.00 0.00 98 1016.8
20260508060141 11 0 0.0 0.0 0.00 0.00 0.00 98 1016.6
20260508055637 11 0 0.0 1.6 0.00 0.00 0.00 98 1016.8
20260508055134 11 0 0.0 0.0 0.00 0.00 0.00 98 1016.8
20260508054630 11 0 0.0 1.6 0.00 0.00 0.00 98 1016.8
20260508054128 11 0 0.0 0.0 0.00 0.00 0.00 98 1016.7
20260508053625 11 0 0.0 0.0 0.00 0.00 0.00 97 1016.6
20260508053122 11 0 0.0 0.0 0.00 0.00 0.00 97 1016.8
20260508052620 11 0 0.0 0.0 0.00 0.00 0.00 97 1016.8
20260508052116 11 0 0.0 0.0 0.00 0.00 0.00 96 1016.5
20260508051613 11 0 0.0 0.0 0.00 0.00 0.00 96 1016.6
20260508051108 11 0 0.0 0.0 0.00 0.00 0.00 95 1016.9
20260508050604 11 0 0.0 0.0 0.00 0.00 0.00 94 1016.8
20260508045558 12 0 0.0 0.0 0.00 0.00 0.00 94 1017.0
20260508045056 12 0 0.0 1.6 0.00 0.00 0.00 94 1017.0
20260508044553 12 229 0.0 1.6 0.00 0.00 0.00 93 1017.0
20260508044049 12 229 0.0 0.0 0.00 0.00 0.00 91 1016.9
20260508043546 12 228 0.0 1.6 0.00 0.00 0.00 91 1016.9
20260508043043 12 257 0.0 0.0 0.00 0.00 0.00 95 1016.7
20260508042539 12 274 0.0 0.0 0.00 0.00 0.00 95 1016.6
20260508042037 12 206 0.0 1.6 0.00 0.00 0.00 96 1016.6
20260508041533 12 206 0.0 0.0 0.00 0.00 0.00 95 1016.8
20260508041030 12 228 0.0 0.0 0.00 0.00 0.00 94 1016.8
20260508040527 12 228 0.0 0.0 0.00 0.00 0.00 94 1016.9
20260508040025 12 229 0.0 0.0 0.00 3.40 3.40 95 1016.7
20260508035521 12 248 0.0 1.6 0.00 3.40 3.40 96 1016.6
20260508035018 12 205 0.0 1.6 0.00 3.40 3.40 98 1016.6
20260508034515 12 224 0.0 0.0 0.00 3.40 3.40 99 1016.6
20260508034012 12 224 0.0 0.0 0.00 3.40 3.40 99 1016.8
20260508033510 12 203 0.0 0.0 0.00 3.40 3.40 99 1016.7
20260508033008 12 225 0.0 0.0 0.00 3.40 3.40 99 1016.7
20260508032504 12 225 0.0 0.0 0.00 3.40 3.40 99 1016.8
20260508032002 12 225 0.0 0.0 0.00 3.40 3.40 99 1016.7
20260508031459 12 224 0.0 0.0 0.00 3.40 3.40 99 1016.6
20260508030954 12 225 0.0 0.0 0.00 3.40 3.40 99 1016.5
20260508030451 12 225 0.0 0.0 0.00 3.40 3.40 99 1016.6
20260508025949 12 225 0.0 0.0 0.00 3.40 3.40 99 1016.6
20260508025445 12 225 0.0 0.0 0.00 3.40 3.40 99 1016.3
20260508024943 12 203 0.0 0.0 0.00 3.40 3.40 99 1016.4
20260508024438 13 225 0.0 0.0 0.00 3.40 3.40 99 1016.3
20260508023935 13 225 0.0 0.0 0.00 3.40 3.40 99 1016.5
20260508023432 13 225 0.0 0.0 0.00 3.40 3.40 99 1016.6
20260508022929 13 225 0.0 0.0 0.00 3.40 3.40 99 1016.4
20260508022425 13 225 0.0 0.0 0.00 3.40 3.40 99 1016.6
20260508021922 13 225 0.0 0.0 0.00 3.40 3.40 98 1016.3
20260508021418 13 225 0.0 0.0 0.00 3.40 3.40 98 1016.5
20260508020914 13 225 0.0 0.0 0.00 3.40 3.40 98 1016.5
20260508020412 13 204 0.0 0.0 0.00 3.40 3.40 98 1016.4
20260508015909 13 225 0.0 0.0 0.00 3.40 3.40 98 1016.1
20260508015407 14 225 0.0 0.0 0.00 3.40 3.40 98 1016.2
20260508014903 14 225 0.0 0.0 0.00 3.40 3.40 98 1016.0
20260508014400 14 225 0.0 0.0 0.00 3.40 3.40 98 1015.9
20260508013855 14 225 0.0 0.0 0.00 3.40 3.40 98 1015.8
20260508013352 14 225 0.0 0.0 0.00 3.40 3.40 97 1015.7
20260508012849 14 225 0.0 0.0 0.00 3.40 3.40 97 1015.5
20260508012346 14 225 0.0 0.0 0.00 3.40 3.40 96 1015.6
20260508011844 14 225 0.0 0.0 0.00 3.40 3.40 96 1015.5
20260508011342 14 225 0.0 0.0 0.00 3.40 3.40 96 1015.6
20260508010839 15 225 0.0 0.0 0.00 3.40 3.40 95 1015.5
20260508010336 15 225 0.0 0.0 0.00 3.40 3.40 95 1015.6
20260508005833 15 225 0.0 0.0 0.00 3.40 3.40 95 1015.4
20260508005330 15 225 0.0 0.0 0.00 3.40 3.40 94 1015.5
20260508004826 15 225 0.0 0.0 0.00 3.40 3.40 94 1015.4
20260508004322 15 225 0.0 0.0 0.00 3.40 3.40 94 1015.2
20260508003819 16 225 0.0 0.0 0.00 3.40 3.40 93 1015.3
20260508003316 16 225 0.0 0.0 0.00 3.40 3.40 93 1015.4
20260508002813 16 225 0.0 0.0 0.00 3.40 3.40 92 1015.2
20260508002310 16 225 0.0 0.0 0.00 3.40 3.40 92 1015.4
20260508001806 16 225 0.0 0.0 0.00 3.40 3.40 91 1015.3
20260508001302 17 225 0.0 0.0 0.00 3.40 3.40 89 1015.3
20260508000758 17 225 0.0 0.0 0.00 3.40 3.40 87 1015.1
20260508000257 17 225 0.0 0.0 0.00 3.40 3.40 86 1015.1
20260507235751 17 225 0.0 0.0 0.00 3.40 3.40 84 1014.9
20260507235249 17 225 0.0 0.0 0.00 3.40 3.40 83 1014.8
20260507234746 17 225 0.0 0.0 0.00 3.40 3.40 82 1014.8
20260507234242 18 225 0.0 0.0 0.00 3.40 3.40 81 1014.6
20260507233739 18 225 0.0 0.0 0.00 3.40 3.40 80 1014.6
20260507233237 18 225 0.0 0.0 0.00 3.40 3.40 80 1014.8
20260507232734 18 225 0.0 0.0 0.00 3.40 3.40 77 1014.9
20260507232231 18 206 0.0 0.0 0.00 3.40 3.40 77 1014.7
20260507231727 18 225 0.0 0.0 0.00 3.40 3.40 76 1014.6
20260507231225 18 225 0.0 1.6 0.00 3.40 3.40 75 1014.7
20260507230721 18 271 1.6 3.2 0.00 3.40 3.40 74 1014.7
20260507230219 18 252 1.6 3.2 0.00 3.40 3.40 75 1014.6
20260507225718 18 239 0.0 1.6 0.00 3.40 3.40 75 1014.6
20260507225215 18 251 0.0 3.2 0.00 3.40 3.40 75 1014.5
20260507224710 18 206 1.6 3.2 0.00 3.40 3.40 74 1014.7
20260507224207 18 266 3.2 4.8 0.00 3.40 3.40 74 1014.7
20260507223703 18 235 1.6 6.4 0.00 3.40 3.40 73 1014.4
20260507223201 19 197 1.6 6.4 0.00 3.40 3.40 72 1014.5
20260507222657 19 264 0.0 4.8 0.00 3.40 3.40 74 1014.5
20260507222153 19 236 3.2 4.8 0.00 3.40 3.40 73 1014.6
20260507221650 19 229 1.6 1.6 0.00 3.40 3.40 71 1014.6
20260507221146 18 227 4.8 6.4 0.00 3.40 3.40 71 1014.3
20260507220643 19 227 6.4 9.7 0.00 3.40 3.40 70 1014.6
20260507220142 19 155 3.2 9.7 0.00 3.40 3.40 71 1014.8
20260507215637 19 246 3.2 11.3 0.00 3.40 3.40 70 1014.8
20260507215135 19 257 1.6 6.4 0.00 3.40 3.40 70 1014.7
20260507214632 20 215 3.2 11.3 0.00 3.40 3.40 69 1014.4
20260507214128 19 254 6.4 11.3 0.00 3.40 3.40 70 1014.6
20260507213625 20 250 4.8 9.7 0.00 3.40 3.40 69 1014.7
20260507213122 20 236 6.4 12.9 0.00 3.40 3.40 69 1014.4
20260507212618 20 262 9.7 16.1 0.00 3.40 3.40 68 1014.3
20260507212115 20 115 1.6 4.8 0.00 3.40 3.40 72 1014.3